Tracking 31027 objects as of 19-Jul-2025
HD Live streaming from Space Station
objects crossing your sky now

STARLINK-4457

Track STARLINK-4457 now!
10-day predictions


NORAD ID: 53663
Int'l Code: 2022-105R
Perigee: 567.7 km
Apogee: 572.6 km
Inclination: 97.7 °
Period: 95.9 minutes
Semi major axis: 6941 km
RCS: Unknown
Launch date: August 31, 2022
Source: United States (US)
Launch site: AIR FORCE WESTERN TEST RANGE (AFWTR)
Your satellite tracking list
SL-12 R/B(2)
Track 1 satellite(s)




NASA's NSSDC Master Catalog

Two Line Element Set (TLE):
1 53663U 22105R   25199.40817873  .00000265  00000-0  25207-4 0  9990
2 53663  97.6559  80.5774 0003489  53.9636 306.1911 15.01259341158087
Source of the keplerian elements: AFSPC